Time,TemperatureF,DewpointF,PressureIn,WindDirection,WindDirectionDegrees,WindSpeedMPH,WindSpeedGustMPH,Humidity,HourlyPrecipIn,Conditions,Clouds,dailyrainin,SoftwareType,DateUTC
2013-02-08 06:30:00,4.1,0.9,30.39,NNE,21,0.0,0.0,86,0.00,,SKC,0.00,VWS V14.01,2013-02-08 12:30:00,
2013-02-08 06:35:00,3.5,0.0,30.40,NNE,21,0.0,0.0,85,0.00,,SKC,0.00,VWS V14.01,2013-02-08 12:35:00,
2013-02-08 06:40:00,3.1,-0.4,30.40,NNE,21,0.0,0.0,85,0.00,,SKC,0.00,VWS V14.01,2013-02-08 12:40:00,
2013-02-08 06:45:00,2.8,-0.7,30.39,NNE,21,0.0,0.0,85,0.00,,SKC,0.00,VWS V14.01,2013-02-08 12:45:00,
2013-02-08 06:50:00,2.6,-0.9,30.39,NNE,21,0.0,0.0,85,0.00,,SKC,0.00,VWS V14.01,2013-02-08 12:50:00,
2013-02-08 06:55:00,2.1,-1.6,30.39,NNE,21,0.0,0.0,84,0.00,,SKC,0.00,VWS V14.01,2013-02-08 12:55:00,
2013-02-08 07:00:00,1.5,-2.2,30.40,NNE,28,0.0,0.0,84,0.00,,SKC,0.00,VWS V14.01,2013-02-08 13:00:00,
2013-02-08 07:05:00,1.3,-2.4,30.40,NNE,28,0.0,0.0,84,0.00,,SKC,0.00,VWS V14.01,2013-02-08 13:05:00,
2013-02-08 07:10:00,1.1,-2.6,30.41,NNE,28,0.0,0.0,84,0.00,,SKC,0.00,VWS V14.01,2013-02-08 13:10:00,
2013-02-08 07:15:00,1.0,-2.7,30.41,NNE,28,0.0,0.0,84,0.00,,SKC,0.00,VWS V14.01,2013-02-08 13:15:00,
2013-02-08 07:20:00,1.0,-2.7,30.41,NNE,28,0.0,0.0,84,0.00,,SKC,0.00,VWS V14.01,2013-02-08 13:20:00,
2013-02-08 07:25:00,1.1,-2.3,30.41,NNE,28,0.0,0.0,85,0.00,,SKC,0.00,VWS V14.01,2013-02-08 13:25:00,
2013-02-08 07:30:00,1.4,-2.0,30.41,NNE,28,0.0,0.0,85,0.00,,SKC,0.00,VWS V14.01,2013-02-08 13:30:00,
2013-02-08 07:35:00,1.6,-1.9,30.41,NNE,28,0.0,0.0,85,0.00,,SKC,0.00,VWS V14.01,2013-02-08 13:35:00,
2013-02-08 07:40:00,1.7,-1.8,30.41,NNE,28,0.0,0.0,85,0.00,,SKC,0.00,VWS V14.01,2013-02-08 13:40:00,
2013-02-08 07:45:00,1.8,-1.7,30.41,NNE,28,0.0,0.0,85,0.00,,SKC,0.00,VWS V14.01,2013-02-08 13:45:00,
2013-02-08 07:50:00,1.2,-2.5,30.41,NNE,28,0.0,0.0,84,0.00,,SKC,0.00,VWS V14.01,2013-02-08 13:50:00,
2013-02-08 07:55:00,0.7,-3.2,30.40,NNE,28,0.0,0.0,83,0.00,,SKC,0.00,VWS V14.01,2013-02-08 13:55:00,
2013-02-08 08:00:00,0.3,-3.6,30.40,NE,36,0.0,1.0,83,0.00,,SKC,0.00,VWS V14.01,2013-02-08 14:00:00,
2013-02-08 08:05:00,1.0,-2.5,30.41,ESE,123,0.0,2.0,85,0.00,,SKC,0.00,VWS V14.01,2013-02-08 14:05:00,
2013-02-08 08:10:00,1.7,-1.8,30.40,ESE,123,0.0,0.0,85,0.00,,SKC,0.00,VWS V14.01,2013-02-08 14:10:00,
2013-02-08 08:15:00,2.2,-1.0,30.41,ESE,123,0.0,0.0,86,0.00,,SKC,0.00,VWS V14.01,2013-02-08 14:15:00,
2013-02-08 08:20:00,2.6,-0.9,30.41,ESE,123,0.0,0.0,85,0.00,,SKC,0.00,VWS V14.01,2013-02-08 14:20:00,
2013-02-08 08:25:00,2.8,-0.7,30.41,ESE,123,0.0,1.0,85,0.00,,SKC,0.00,VWS V14.01,2013-02-08 14:25:00,
2013-02-08 08:30:00,3.1,-0.4,30.40,ESE,123,0.0,0.0,85,0.00,,SKC,0.00,VWS V14.01,2013-02-08 14:30:00,
2013-02-08 08:35:00,4.2,1.2,30.40,ESE,110,0.0,1.0,87,0.00,,SKC,0.00,VWS V14.01,2013-02-08 14:35:00,
2013-02-08 08:40:00,6.0,3.2,30.40,SSE,147,0.0,1.0,88,0.00,,SKC,0.00,VWS V14.01,2013-02-08 14:40:00,
2013-02-08 08:45:00,7.7,5.1,30.40,ESE,123,0.0,0.0,89,0.00,,SKC,0.00,VWS V14.01,2013-02-08 14:45:00,
2013-02-08 08:50:00,8.9,6.1,30.40,ESE,123,0.0,1.0,88,0.00,,SKC,0.00,VWS V14.01,2013-02-08 14:50:00,
2013-02-08 08:55:00,9.9,7.3,30.41,SE,132,0.0,2.0,89,0.00,,SKC,0.00,VWS V14.01,2013-02-08 14:55:00,
2013-02-08 09:00:00,10.9,8.3,30.41,SE,130,0.0,1.0,89,0.00,,SKC,0.00,VWS V14.01,2013-02-08 15:00:00,
2013-02-08 09:05:00,11.3,8.4,30.41,SE,129,0.0,0.0,88,0.00,,SKC,0.00,VWS V14.01,2013-02-08 15:05:00,
2013-02-08 09:10:00,11.6,8.7,30.40,SE,129,0.0,2.0,88,0.00,,SKC,0.00,VWS V14.01,2013-02-08 15:10:00,
2013-02-08 09:15:00,12.1,9.2,30.41,SE,130,2.0,2.0,88,0.00,,SKC,0.00,VWS V14.01,2013-02-08 15:15:00,
2013-02-08 09:20:00,13.0,10.1,30.40,SE,130,0.0,2.0,88,0.00,,SKC,0.00,VWS V14.01,2013-02-08 15:20:00,
2013-02-08 09:25:00,14.0,11.4,30.40,SE,124,1.0,2.0,89,0.00,,SKC,0.00,VWS V14.01,2013-02-08 15:25:00,
2013-02-08 09:30:00,15.2,12.6,30.40,SSE,149,0.0,4.0,89,0.00,,SKC,0.00,VWS V14.01,2013-02-08 15:30:00,
2013-02-08 09:35:00,16.0,13.3,30.40,ESE,123,3.0,4.0,89,0.00,,SKC,0.00,VWS V14.01,2013-02-08 15:35:00,
2013-02-08 09:40:00,16.6,13.7,30.40,ESE,118,0.0,3.0,88,0.00,,SKC,0.00,VWS V14.01,2013-02-08 15:40:00,
2013-02-08 09:45:00,17.1,14.2,30.40,ESE,121,0.0,3.0,88,0.00,,SKC,0.00,VWS V14.01,2013-02-08 15:45:00,
2013-02-08 09:50:00,17.5,14.3,30.40,SE,144,4.0,4.0,87,0.00,,SKC,0.00,VWS V14.01,2013-02-08 15:50:00,
2013-02-08 09:55:00,18.0,14.8,30.40,ESE,119,0.0,3.0,87,0.00,,SKC,0.00,VWS V14.01,2013-02-08 15:55:00,
2013-02-08 10:00:00,18.6,15.4,30.39,SE,132,3.0,5.0,87,0.00,,SKC,0.00,VWS V14.01,2013-02-08 16:00:00,
2013-02-08 10:05:00,18.9,15.1,30.40,SE,138,4.0,5.0,85,0.00,,SKC,0.00,VWS V14.01,2013-02-08 16:05:00,
2013-02-08 10:10:00,18.8,15.1,30.41,SE,143,2.0,6.0,85,0.00,,SKC,0.00,VWS V14.01,2013-02-08 16:10:00,
2013-02-08 10:15:00,19.2,15.4,30.41,ESE,123,3.0,3.0,85,0.00,,SKC,0.00,VWS V14.01,2013-02-08 16:15:00,
2013-02-08 10:20:00,19.8,15.8,30.40,ENE,59,0.0,4.0,84,0.00,,SKC,0.00,VWS V14.01,2013-02-08 16:20:00,
2013-02-08 10:25:00,20.4,16.1,30.40,East,92,8.0,9.0,83,0.00,,SKC,0.00,VWS V14.01,2013-02-08 16:25:00,
2013-02-08 10:30:00,20.7,15.8,30.40,ESE,121,4.0,6.0,81,0.00,,SKC,0.00,VWS V14.01,2013-02-08 16:30:00,
2013-02-08 10:35:00,20.8,15.3,30.40,SE,128,3.0,4.0,79,0.00,,SKC,0.00,VWS V14.01,2013-02-08 16:35:00,
2013-02-08 10:40:00,20.9,15.1,30.40,SSE,151,0.0,10.0,78,0.00,,SKC,0.00,VWS V14.01,2013-02-08 16:40:00,
2013-02-08 10:45:00,21.3,15.2,30.40,SSE,167,3.0,6.0,77,0.00,,SKC,0.00,VWS V14.01,2013-02-08 16:45:00,
2013-02-08 10:50:00,21.8,15.7,30.40,ESE,106,3.0,5.0,77,0.00,,SKC,0.00,VWS V14.01,2013-02-08 16:50:00,
2013-02-08 10:55:00,22.3,15.6,30.40,SE,129,5.0,9.0,75,0.00,,SKC,0.00,VWS V14.01,2013-02-08 16:55:00,
2013-02-08 11:00:00,22.7,15.4,30.40,SSE,151,4.0,5.0,73,0.00,,SKC,0.00,VWS V14.01,2013-02-08 17:00:00,
2013-02-08 11:05:00,23.0,15.3,30.40,SE,138,4.0,6.0,72,0.00,,SKC,0.00,VWS V14.01,2013-02-08 17:05:00,
2013-02-08 11:10:00,23.0,16.6,30.40,SE,138,6.0,11.0,76,0.00,,SKC,0.00,VWS V14.01,2013-02-08 17:10:00,
2013-02-08 11:15:00,22.3,14.3,30.40,SSE,155,6.0,10.0,71,0.00,,SKC,0.00,VWS V14.01,2013-02-08 17:15:00,
2013-02-08 11:20:00,22.4,14.8,30.40,SSE,158,2.0,6.0,72,0.00,,SKC,0.00,VWS V14.01,2013-02-08 17:20:00,
2013-02-08 11:25:00,22.1,14.5,30.40,SSE,157,5.0,13.0,72,0.00,,SKC,0.00,VWS V14.01,2013-02-08 17:25:00,
2013-02-08 11:30:00,22.3,14.3,30.39,SSE,157,8.0,11.0,71,0.00,,SKC,0.00,VWS V14.01,2013-02-08 17:30:00,
2013-02-08 11:35:00,22.7,14.4,30.39,SSE,155,6.0,11.0,70,0.00,,SKC,0.00,VWS V14.01,2013-02-08 17:35:00,
2013-02-08 11:40:00,22.7,14.1,30.39,SSE,161,10.0,16.0,69,0.00,,SKC,0.00,VWS V14.01,2013-02-08 17:40:00,
2013-02-08 11:45:00,22.6,14.3,30.39,SE,135,3.0,12.0,70,0.00,,SKC,0.00,VWS V14.01,2013-02-08 17:45:00,
2013-02-08 11:50:00,23.0,14.4,30.39,SSE,158,9.0,10.0,69,0.00,,SKC,0.00,VWS V14.01,2013-02-08 17:50:00,
2013-02-08 11:55:00,22.7,13.7,30.39,SSE,148,9.0,11.0,68,0.00,,SKC,0.00,VWS V14.01,2013-02-08 17:55:00,
2013-02-08 12:00:00,22.6,14.0,30.39,SSE,156,6.0,14.0,69,0.00,,SKC,0.00,VWS V14.01,2013-02-08 18:00:00,
2013-02-08 12:05:00,22.6,14.0,30.39,SSE,164,6.0,13.0,69,0.00,,SKC,0.00,VWS V14.01,2013-02-08 18:05:00,
2013-02-08 12:10:00,22.4,13.8,30.39,SSE,162,11.0,15.0,69,0.00,,SKC,0.00,VWS V14.01,2013-02-08 18:10:00,
2013-02-08 12:15:00,22.3,14.0,30.39,SE,144,13.0,14.0,70,0.00,,SKC,0.00,VWS V14.01,2013-02-08 18:15:00,
2013-02-08 12:20:00,22.4,14.1,30.39,SSE,157,11.0,12.0,70,0.00,,SKC,0.00,VWS V14.01,2013-02-08 18:20:00,
2013-02-08 12:25:00,22.4,14.8,30.39,South,169,10.0,13.0,72,0.00,,SKC,0.00,VWS V14.01,2013-02-08 18:25:00,
2013-02-08 12:30:00,22.3,14.7,30.39,South,178,7.0,16.0,72,0.00,,SKC,0.00,VWS V14.01,2013-02-08 18:30:00,
2013-02-08 12:35:00,22.2,15.2,30.38,SSE,164,11.0,15.0,74,0.00,,SKC,0.00,VWS V14.01,2013-02-08 18:35:00,
2013-02-08 12:41:00,22.1,15.4,30.38,SSE,155,12.0,16.0,75,0.00,,SKC,0.00,VWS V14.01,2013-02-08 18:41:00,
2013-02-08 12:46:00,22.0,15.3,30.38,SSE,149,9.0,15.0,75,0.00,,SKC,0.00,VWS V14.01,2013-02-08 18:46:00,
2013-02-08 12:51:00,22.1,15.7,30.38,South,173,13.0,13.0,76,0.00,,SKC,0.00,VWS V14.01,2013-02-08 18:51:00,
2013-02-08 12:56:00,22.1,15.7,30.38,South,175,11.0,14.0,76,0.00,,SKC,0.00,VWS V14.01,2013-02-08 18:56:00,
2013-02-08 13:01:00,22.2,15.8,30.38,South,169,14.0,17.0,76,0.00,,SKC,0.00,VWS V14.01,2013-02-08 19:01:00,
2013-02-08 13:05:00,22.3,15.9,30.38,SSE,152,15.0,15.0,76,0.00,,SKC,0.00,VWS V14.01,2013-02-08 19:05:00,
2013-02-08 13:10:00,22.2,15.8,30.38,South,175,7.0,15.0,76,0.00,,SKC,0.00,VWS V14.01,2013-02-08 19:10:00,
2013-02-08 13:15:00,22.3,15.9,30.37,SSE,151,14.0,14.0,76,0.00,,SKC,0.00,VWS V14.01,2013-02-08 19:15:00,
2013-02-08 13:20:00,22.4,16.3,30.37,SSE,166,10.0,13.0,77,0.00,,SKC,0.00,VWS V14.01,2013-02-08 19:20:00,
2013-02-08 13:25:00,22.6,16.8,30.37,ESE,123,3.0,12.0,78,0.00,,SKC,0.00,VWS V14.01,2013-02-08 19:25:00,
2013-02-08 13:31:00,23.0,16.9,30.37,SE,145,6.0,11.0,77,0.00,,SKC,0.00,VWS V14.01,2013-02-08 19:31:00,
2013-02-08 13:36:00,23.2,16.8,30.36,SSE,163,9.0,11.0,76,0.00,,SKC,0.00,VWS V14.01,2013-02-08 19:36:00,
2013-02-08 13:41:00,23.1,17.0,30.36,SE,146,10.0,12.0,77,0.00,,SKC,0.00,VWS V14.01,2013-02-08 19:41:00,
2013-02-08 13:46:00,23.1,16.7,30.36,SE,132,6.0,11.0,76,0.00,,SKC,0.00,VWS V14.01,2013-02-08 19:46:00,
2013-02-08 13:50:00,23.2,16.8,30.36,SSE,164,6.0,13.0,76,0.00,,SKC,0.00,VWS V14.01,2013-02-08 19:50:00,
2013-02-08 13:55:00,23.3,16.9,30.35,SSE,166,10.0,14.0,76,0.00,,SKC,0.00,VWS V14.01,2013-02-08 19:55:00,
2013-02-08 14:00:00,23.1,16.7,30.35,SSE,163,14.0,15.0,76,0.00,,SKC,0.00,VWS V14.01,2013-02-08 20:00:00,
2013-02-08 14:06:00,22.9,16.5,30.34,SSE,158,10.0,14.0,76,0.00,,SKC,0.00,VWS V14.01,2013-02-08 20:06:00,
2013-02-08 14:11:00,23.0,16.6,30.34,SSE,161,10.0,13.0,76,0.00,,SKC,0.00,VWS V14.01,2013-02-08 20:11:00,
2013-02-08 14:16:00,23.0,16.6,30.34,SSE,163,6.0,12.0,76,0.00,,SKC,0.00,VWS V14.01,2013-02-08 20:16:00,
2013-02-08 14:21:00,23.1,16.7,30.34,SSE,156,6.0,14.0,76,0.00,,SKC,0.00,VWS V14.01,2013-02-08 20:21:00,
2013-02-08 14:26:00,23.2,16.5,30.34,SSE,156,11.0,12.0,75,0.00,,SKC,0.00,VWS V14.01,2013-02-08 20:26:00,
2013-02-08 14:31:00,23.3,16.9,30.34,SE,134,7.0,12.0,76,0.00,,SKC,0.00,VWS V14.01,2013-02-08 20:31:00,
2013-02-08 14:36:00,23.3,15.9,30.33,SE,142,14.0,15.0,73,0.00,,SKC,0.00,VWS V14.01,2013-02-08 20:36:00,
2013-02-08 14:41:00,23.8,16.4,30.33,SSE,156,10.0,16.0,73,0.00,,SKC,0.00,VWS V14.01,2013-02-08 20:41:00,
2013-02-08 14:45:00,24.0,16.6,30.33,SSE,156,5.0,12.0,73,0.00,,SKC,0.00,VWS V14.01,2013-02-08 20:45:00,
2013-02-08 14:50:00,24.2,16.8,30.33,SSE,148,9.0,12.0,73,0.00,,SKC,0.00,VWS V14.01,2013-02-08 20:50:00,
2013-02-08 14:55:00,23.9,16.2,30.33,SSE,153,11.0,16.0,72,0.00,,SKC,0.00,VWS V14.01,2013-02-08 20:55:00,
2013-02-08 15:00:00,23.7,16.0,30.33,SSE,161,7.0,12.0,72,0.00,,SKC,0.00,VWS V14.01,2013-02-08 21:00:00,
2013-02-08 15:05:00,23.7,16.3,30.33,SSE,165,9.0,15.0,73,0.00,,SKC,0.00,VWS V14.01,2013-02-08 21:05:00,
2013-02-08 15:10:00,23.5,16.5,30.33,South,171,14.0,14.0,74,0.00,,SKC,0.00,VWS V14.01,2013-02-08 21:10:00,
2013-02-08 15:15:00,23.6,16.5,30.33,SSE,155,9.0,14.0,74,0.00,,SKC,0.00,VWS V14.01,2013-02-08 21:15:00,
2013-02-08 15:21:00,23.6,16.5,30.33,SSE,167,13.0,19.0,74,0.00,,SKC,0.00,VWS V14.01,2013-02-08 21:21:00,
2013-02-08 15:25:00,23.4,16.7,30.33,South,173,12.0,15.0,75,0.00,,SKC,0.00,VWS V14.01,2013-02-08 21:25:00,
2013-02-08 15:30:00,23.3,16.6,30.33,SSE,147,10.0,16.0,75,0.00,,SKC,0.00,VWS V14.01,2013-02-08 21:30:00,
2013-02-08 15:35:00,23.2,16.5,30.33,South,169,11.0,13.0,75,0.00,,SKC,0.00,VWS V14.01,2013-02-08 21:35:00,
2013-02-08 15:40:00,23.1,16.4,30.33,SSE,167,9.0,13.0,75,0.00,,SKC,0.00,VWS V14.01,2013-02-08 21:40:00,
2013-02-08 15:45:00,22.8,16.1,30.33,SSE,151,9.0,16.0,75,0.00,,SKC,0.00,VWS V14.01,2013-02-08 21:45:00,
2013-02-08 15:50:00,22.7,16.0,30.33,South,179,6.0,14.0,75,0.00,,SKC,0.00,VWS V14.01,2013-02-08 21:50:00,
2013-02-08 15:55:00,22.2,15.5,30.33,SSE,150,7.0,11.0,75,0.00,,SKC,0.00,VWS V14.01,2013-02-08 21:55:00,
2013-02-08 16:00:00,22.4,15.7,30.32,SSE,161,3.0,11.0,75,0.00,,SKC,0.00,VWS V14.01,2013-02-08 22:00:00,
2013-02-08 16:05:00,22.7,16.0,30.32,SSE,156,8.0,10.0,75,0.00,,SKC,0.00,VWS V14.01,2013-02-08 22:05:00,
2013-02-08 16:10:00,22.8,16.1,30.32,SSE,157,10.0,12.0,75,0.00,,SKC,0.00,VWS V14.01,2013-02-08 22:10:00,
2013-02-08 16:15:00,22.5,15.8,30.32,SSE,161,8.0,11.0,75,0.00,,SKC,0.00,VWS V14.01,2013-02-08 22:15:00,
2013-02-08 16:21:00,22.3,15.6,30.31,SE,146,6.0,12.0,75,0.00,,SKC,0.00,VWS V14.01,2013-02-08 22:21:00,
2013-02-08 16:26:00,22.0,15.3,30.32,SSE,159,6.0,10.0,75,0.00,,SKC,0.00,VWS V14.01,2013-02-08 22:26:00,
2013-02-08 16:31:00,21.2,14.5,30.32,SSE,159,8.0,9.0,75,0.00,,SKC,0.00,VWS V14.01,2013-02-08 22:31:00,
2013-02-08 16:36:00,20.8,14.7,30.31,SSE,159,7.0,10.0,77,0.00,,SKC,0.00,VWS V14.01,2013-02-08 22:36:00,
2013-02-08 16:40:00,20.9,15.1,30.31,SSE,159,6.0,10.0,78,0.00,,SKC,0.00,VWS V14.01,2013-02-08 22:40:00,
2013-02-08 16:45:00,20.6,14.6,30.31,SSE,155,8.0,10.0,77,0.00,,SKC,0.00,VWS V14.01,2013-02-08 22:45:00,
2013-02-08 16:50:00,20.4,14.6,30.31,SSE,155,7.0,10.0,78,0.00,,SKC,0.00,VWS V14.01,2013-02-08 22:50:00,
2013-02-08 16:56:00,20.3,14.6,30.31,SSE,159,7.0,10.0,78,0.00,,SKC,0.00,VWS V14.01,2013-02-08 22:56:00,
2013-02-08 17:01:00,20.0,14.0,30.31,SSE,161,6.0,9.0,77,0.00,,SKC,0.00,VWS V14.01,2013-02-08 23:01:00,
2013-02-08 17:06:00,19.7,14.0,30.31,SSE,150,3.0,7.0,78,0.00,,SKC,0.00,VWS V14.01,2013-02-08 23:06:00,
2013-02-08 17:11:00,19.1,13.1,30.30,SSE,155,4.0,6.0,77,0.00,,SKC,0.00,VWS V14.01,2013-02-08 23:11:00,
2013-02-08 17:15:00,18.6,12.9,30.30,SSE,161,4.0,6.0,78,0.00,,SKC,0.00,VWS V14.01,2013-02-08 23:15:00,
2013-02-08 17:20:00,17.9,12.2,30.30,SSE,155,3.0,5.0,78,0.00,,SKC,0.00,VWS V14.01,2013-02-08 23:20:00,
2013-02-08 17:25:00,17.6,12.2,30.31,North,360,3.0,6.0,79,0.00,,SKC,0.00,VWS V14.01,2013-02-08 23:25:00,
2013-02-08 17:30:00,17.3,11.9,30.31,SSE,159,4.0,5.0,79,0.00,,SKC,0.00,VWS V14.01,2013-02-08 23:30:00,
2013-02-08 17:35:00,16.9,11.5,30.31,South,175,5.0,6.0,79,0.00,,SKC,0.00,VWS V14.01,2013-02-08 23:35:00,
2013-02-08 17:41:00,17.8,13.0,30.31,South,171,4.0,7.0,81,0.00,,SKC,0.00,VWS V14.01,2013-02-08 23:41:00,
2013-02-08 17:45:00,17.5,12.4,30.30,SSE,148,3.0,5.0,80,0.00,,SKC,0.00,VWS V14.01,2013-02-08 23:45:00,
2013-02-08 17:50:00,17.1,11.7,30.30,SSE,151,4.0,6.0,79,0.00,,SKC,0.00,VWS V14.01,2013-02-08 23:50:00,
2013-02-08 17:55:00,16.1,10.8,30.30,SSE,152,2.0,4.0,79,0.00,,SKC,0.00,VWS V14.01,2013-02-08 23:55:00,
2013-02-08 18:01:00,15.4,10.4,30.30,SSE,148,3.0,6.0,80,0.00,,SKC,0.00,VWS V14.01,2013-02-09 00:01:00,
2013-02-08 18:06:00,15.5,10.7,30.30,SSE,154,3.0,5.0,81,0.00,,SKC,0.00,VWS V14.01,2013-02-09 00:06:00,
2013-02-08 18:11:00,15.7,11.2,30.30,SSE,155,5.0,5.0,82,0.00,,SKC,0.00,VWS V14.01,2013-02-09 00:11:00,
2013-02-08 18:16:00,16.6,12.4,30.30,SSE,150,2.0,4.0,83,0.00,,SKC,0.00,VWS V14.01,2013-02-09 00:16:00,
2013-02-08 18:21:00,17.2,12.9,30.30,SSE,163,6.0,7.0,83,0.00,,SKC,0.00,VWS V14.01,2013-02-09 00:21:00,
2013-02-08 18:26:00,17.2,12.7,30.31,SSE,160,5.0,7.0,82,0.00,,SKC,0.00,VWS V14.01,2013-02-09 00:26:00,
2013-02-08 18:31:00,17.3,13.0,30.31,SSE,151,4.0,6.0,83,0.00,,SKC,0.00,VWS V14.01,2013-02-09 00:31:00,
2013-02-08 18:36:00,17.6,13.1,30.30,SSE,155,3.0,4.0,82,0.00,,SKC,0.00,VWS V14.01,2013-02-09 00:36:00,